Location: Poughquag
(41.6090°N, 73.6820°W)
Time: 12:13:35
(UTC-04:00)

Vanguard 1 Rocket - Pass Details

Date: 01 June 2020
Orbit: 653 x 4224 km, 34.3° (Epoch: 06 July)

Event Time Altitude Azimuth Distance (km) Brightness Sun altitude
Rises 04:13:19 0° 268° (W) 6,916 11.4 -11.2°
Reaches altitude 10° 04:18:49 10° 265° (W) 5,317 10.8 -10.4°
Maximum altitude 04:31:49 53° 194° (SSW) 1,829 8.6 -8.6°
Drops below altitude 10° 04:38:37 10° 119° (ESE) 2,870 10.3 -7.6°
Sets 04:40:43 0° 114° (ESE) 3,581 10.9 -7.3°
